User: anonymous   Login
Location: Oronoko Observatory
(41.9167°N, 86.3833°W)
Time: 15:54:04
(UTC-04:00)
Language:

PAYLOAD A - Orbit

View from above orbital plane
View from above orbital plane
View from above satellite
View from above satellite

Ground track
Ground track

The orbit data is extracted from the following two-line orbital elements,

1 27840U 03031A   16208.51284816 -.00000014  00000-0  90739-5 0  9999
2 27840  98.1963 214.2608 0098758  21.6189 338.9125 14.38859751686480
Epoch (UTC): 26 July 2016 12:18:30
Eccentricity: 0.0098758
inclination: 98.1963°
perigee height: 692 km
apogee height: 833 km
right ascension of ascending node: 214.2608°
argument of perigee: 21.6189°
revolutions per day: 14.38859751
mean anomaly at epoch: 338.9125°
orbit number at epoch: 68648

The dashed part of the orbit path shows where the satellite is in the earth's shadow,  

DLR